Vorticity
6 6 5 5 5 5 6 7 7 7 7 7 7 8 9 10 10 10 10 10 10 11 10 9 8 8 9 7 7 18 11 6 11 4 -4 -3 1 13 10 5 13 4 2 4 3 3 6
7 7 6 7 8 8 8 7 7 7 8 8 8 7 7 7 7 6 5 4 4 9 11 10 9 8 8 2 19 11 11 19 20 -6 -5 -6 -2 14 10 15 0 3 15 12 15 17 10
7 7 7 7 7 6 7 7 6 6 6 5 4 3 4 4 6 9 9 9 11 14 17 13 10 8 7 20 6 9 11 13 9 27 12 11 18 14 17 9 10 5 3 -0 -5 -2 2
6 7 7 7 6 6 5 6 7 5 5 4 6 9 14 16 13 11 12 12 12 12 12 17 15 10 8 11 12 22 22 24 14 11 13 12 8 7 1 8 3 12 19 17 21 10 -6
8 6 5 5 6 7 6 5 7 9 10 12 14 13 11 12 14 15 12 10 10 9 9 14 9 16 30 30 5 7 8 5 16 15 12 5 6 7 7 -2 -7 -4 -14 -7 12 6 18
5 5 5 6 6 5 6 7 7 8 10 11 10 9 7 6 6 6 6 6 5 5 13 -2 32 -8 2 -14 -3 -2 4 14 13 19 15 10 7 7 5 9 -30 15 4 -4 -8 20 25
4 5 6 5 5 6 5 6 9 11 10 10 7 6 6 7 7 7 7 6 5 13 -1 5 18 10 13 6 11 4 -2 7 12 12 5 19 10 -8 -2 5 13 8 -18 -8 -5 5 -5
5 7 5 6 6 5 6 8 10 9 9 9 8 7 7 6 5 5 6 5 6 -0 -5 17 32 27 30 30 23 21 18 15 20 5 13 8 5 13 14 13 15 12 10 6 9 5 -7
6 6 5 5 5 6 8 9 10 8 8 6 5 5 5 6 6 5 7 8 10 2 16 44 24 21 18 17 18 33 19 13 14 17 6 8 -60 66 33 15 16 11 11 6 3 9 1
6 5 5 5 6 7 9 8 7 5 5 5 5 4 6 9 8 11 10 12 10 10 56 12 14 13 8 9 23 11 21 19 10 16 9 36 42 8 -10 14 14 6 17 10 -5 -17 5
5 5 5 6 8 9 7 5 5 5 5 6 8 8 10 10 12 18 9 17 21 9 21 42 19 7 10 10 2 17 15 13 12 2 -5 -30 3 19 33 8 -2 -14 17 11 16 14 3
5 5 6 8 8 7 6 5 5 5 8 10 9 10 14 14 15 17 20 19 15 32 1 4 6 4 2 5 13 9 4 13 10 16 21 -3 -3 -23 18 7 33 28 -5 -3 22 18 34
5 6 8 8 7 6 6 5 7 8 9 9 13 15 20 10 16 18 20 21 37 4 5 -4 -4 -4 -20 19 11 1 34 22 14 16 11 17 16 30 15 -20 8 13 36 12 20 10 4
7 8 9 7 6 6 5 8 9 9 12 15 18 18 16 18 19 17 19 19 21 -20 0 -14 -0 18 55 3 20 -10 -0 -8 47 34 46 52 57 47 52 12 17 1 -8 -47 -6 4 19
8 8 7 7 6 6 10 11 11 12 14 18 13 18 26 12 14 36 32 19 1 3 -10 10 34 35 5 -7 -6 -6 15 49 -14 1 35 23 0 -34 41 18 47 18 37 -8 -35 -41 4
8 8 7 5 8 12 12 10 13 17 20 12 14 17 20 13 22 14 27 9 -5 -9 -2 7 9 11 -20 11 17 17 30 18 -3 7 -6 -3 25 25 13 0 30 35 -20 50 13 19 17
8 6 6 10 12 10 11 16 14 16 11 5 13 21 3 20 15 26 7 3 15 4 23 2 3 14 1 16 2 -9 -20 -9 7 -1 11 31 17 -21 22 14 14 16 50 15 13 -7 18
6 8 11 10 12 16 15 11 11 9 7 7 11 17 18 8 10 10 10 15 15 11 18 31 3 22 3 19 16 8 10 12 -8 15 2 -10 13 29 -13 15 36 4 18 -8 33 -16 14
8 12 10 17 14 11 7 9 8 6 5 3 5 9 14 -1 7 10 4 3 13 15 10 3 10 1 7 18 28 -9 2 8 33 6 -21 10 -13 24 20 24 -7 7 -0 -1 34 18 17
12 9 16 12 8 6 8 9 6 7 9 10 10 4 8 -17 5 8 6 9 -0 11 14 9 28 10 -5 9 37 -18 21 5 -4 7 4 41 23 -7 -20 -10 -15 6 -5 12 9 28 -24
10 18 10 5 5 7 10 4 6 8 7 8 7 -2 4 -3 9 7 10 5 8 8 2 40 -7 11 11 7 8 18 5 11 16 33 5 5 -3 18 2 7 16 15 4 29 26 22 34
16 7 5 5 8 8 5 7 7 6 7 9 9 11 4 15 10 11 10 6 4 -1 26 -18 18 11 5 11 23 6 3 6 3 6 17 -19 2 25 -1 47 30 17 -3 15 10 8 -4
5 7 6 8 7 5 5 9 9 8 8 9 8 9 7 4 11 9 16 1 2 4 45 -10 10 8 2 2 8 5 -4 26 37 29 19 21 19 7 14 31 21 -2 22 29 2 23 7
7 7 8 6 3 7 10 7 10 10 13 13 10 10 7 2 10 9 3 8 6 17 8 10 22 12 19 11 10 20 26 33 20 -10 48 32 16 43 2 52 6 31 -11 4 14 12 11
5 7 5 6 8 11 9 10 10 10 10 10 11 9 9 3 6 15 2 1 8 7 11 14 10 6 13 20 27 31 17 22 6 16 21 21 31 9 2 18 31 -6 -11 5 7 -9 14
4 5 7 8 10 10 8 8 8 7 8 8 14 9 14 7 4 9 6 4 9 6 11 5 3 20 31 19 28 18 11 -11 -9 17 -5 10 12 18 11 16 13 10 26 11 10 -7 5
5 7 7 9 7 7 8 9 10 9 8 9 15 13 20 14 10 3 8 20 0 3 10 10 4 31 -5 8 11 28 5 8 -0 5 -4 23 14 15 16 15 10 16 13 18 -1 -11 -2
7 5 10 9 7 8 9 8 7 7 9 10 11 15 18 6 10 20 3 2 -1 19 19 8 23 3 30 20 13 10 14 -5 25 8 11 8 25 13 13 17 -7 19 11 18 1 6 9
9 9 7 6 8 8 7 9 10 15 18 17 16 15 22 15 -15 -19 7 14 26 19 11 19 9 21 5 0 -12 16 6 26 1 9 19 9 15 5 13 13 -2 7 13 8 8 8 8
Height
3139 3137 3134 3131 3129 3126 3123 3120 3117 3114 3111 3107 3103 3100 3096 3093 3089 3085 3081 3077 3074 3071 3068 3064 3060 3057 3055 3053 3053 3051 3050 3050 3050 3050 3051 3052 3051 3052 3049 3051 3052 3044 3048 3049 3050 3051 3051
3138 3136 3133 3130 3127 3125 3122 3118 3115 3111 3107 3103 3100 3096 3092 3088 3084 3080 3075 3071 3068 3064 3060 3056 3053 3050 3047 3045 3043 3045 3043 3042 3043 3043 3044 3045 3044 3046 3043 3044 3044 3041 3041 3039 3041 3041 3042
3136 3134 3131 3129 3126 3122 3119 3115 3111 3107 3103 3099 3095 3091 3086 3082 3078 3074 3070 3066 3062 3058 3053 3049 3045 3040 3038 3044 3034 3034 3036 3035 3034 3035 3036 3037 3039 3037 3036 3037 3039 3036 3032 3032 3032 3033 3033
3135 3133 3130 3127 3123 3120 3116 3112 3108 3104 3100 3095 3091 3087 3082 3077 3072 3067 3062 3058 3054 3052 3047 3043 3039 3033 3029 3030 3027 3023 3024 3027 3025 3027 3029 3030 3030 3029 3028 3030 3028 3028 3026 3021 3023 3029 3028
3134 3131 3128 3124 3120 3117 3113 3110 3105 3101 3097 3092 3087 3082 3077 3072 3068 3063 3058 3053 3049 3046 3042 3036 3033 3028 3023 3021 3021 3019 3017 3018 3018 3019 3021 3023 3023 3022 3024 3024 3025 3022 3013 3014 3016 3022 3024
3132 3128 3125 3121 3117 3114 3110 3106 3102 3098 3094 3089 3084 3079 3073 3067 3063 3059 3053 3048 3044 3042 3038 3032 3025 3026 3018 3014 3014 3013 3012 3012 3011 3012 3012 3015 3014 3010 3010 3015 3002 3008 3008 3008 3008 3015 3015
3128 3125 3122 3118 3114 3110 3106 3101 3098 3094 3089 3085 3079 3075 3071 3064 3058 3053 3050 3045 3042 3035 3034 3028 3021 3012 3007 2999 3002 3004 3006 3005 3004 3003 3004 3006 3003 2988 2994 2998 3000 3004 3003 2998 3001 3008 3006
3125 3122 3118 3114 3111 3107 3102 3097 3094 3089 3084 3080 3075 3070 3065 3059 3053 3047 3043 3036 3031 3024 3005 3021 3011 3000 2997 2993 2992 2994 2997 2998 2996 2994 2999 2998 2980 2990 2994 2996 2997 2997 2995 2988 2993 3000 3001
3123 3119 3115 3111 3107 3103 3098 3093 3089 3085 3080 3074 3069 3063 3060 3054 3049 3041 3036 3030 3024 3016 3007 3002 2999 2996 2994 2991 2987 2989 2990 2991 2990 2989 2990 2986 2983 2987 2987 2988 2989 2985 2984 2982 2985 2992 2991
3120 3115 3111 3107 3103 3098 3092 3087 3084 3080 3076 3071 3064 3058 3050 3050 3043 3037 3030 3024 3019 3012 3003 2997 2995 2993 2991 2988 2987 2985 2983 2984 2982 2982 2985 2979 2978 2980 2981 2977 2984 2976 2980 2982 2983 2987 2982
3116 3112 3108 3104 3099 3093 3088 3083 3079 3075 3072 3065 3057 3051 3047 3036 3031 3030 3025 3018 3015 3010 3009 2996 2992 2990 2989 2989 2986 2983 2980 2978 2975 2976 2979 2966 2969 2973 2968 2964 2975 2964 2976 2976 2977 2976 2977
3112 3109 3104 3099 3094 3090 3084 3078 3073 3068 3065 3060 3050 3045 3038 3036 3025 3020 3015 3012 3009 3010 3000 2995 2990 2984 2984 2984 2983 2982 2982 2977 2974 2971 2968 2958 2964 2964 2964 2965 2966 2967 2968 2970 2969 2970 2965
3109 3105 3100 3095 3090 3085 3080 3075 3068 3060 3056 3050 3047 3039 3031 3022 3018 3012 3008 3007 3008 3001 2997 2993 2986 2984 2984 2981 2981 2978 2975 2972 2973 2967 2959 2958 2956 2958 2961 2960 2962 2962 2964 2965 2966 2960 2944
3105 3101 3096 3091 3086 3080 3074 3068 3061 3054 3049 3043 3038 3031 3023 3016 3010 3006 3002 3003 3001 3000 2994 2990 2984 2981 2983 2976 2976 2971 2970 2969 2966 2960 2956 2952 2946 2950 2953 2950 2948 2949 2948 2948 2942 2944 2941
3101 3097 3092 3086 3081 3075 3069 3062 3055 3050 3045 3039 3031 3026 3018 3010 3005 2999 2998 3000 3000 2998 2995 2988 2982 2980 2979 2976 2976 2971 2969 2970 2963 2962 2962 2953 2945 2942 2944 2944 2945 2941 2939 2939 2939 2935 2936
3097 3092 3087 3081 3075 3070 3063 3056 3052 3046 3040 3033 3026 3020 3011 3005 3001 2998 2997 2999 2999 2996 2992 2988 2984 2982 2979 2975 2974 2971 2966 2964 2961 2959 2956 2952 2942 2938 2937 2933 2933 2933 2935 2934 2934 2930 2928
3093 3088 3082 3077 3071 3065 3058 3053 3048 3043 3035 3030 3024 3016 3010 3005 3002 2999 2998 2999 2995 2994 2991 2988 2985 2981 2977 2974 2971 2968 2966 2961 2957 2953 2951 2948 2945 2940 2934 2936 2931 2927 2925 2925 2923 2920 2916
3088 3083 3078 3072 3066 3061 3056 3050 3044 3038 3034 3029 3022 3017 3011 3005 3003 2998 2997 2995 2995 2990 2987 2984 2981 2978 2976 2971 2966 2964 2961 2959 2956 2951 2946 2945 2938 2933 2932 2930 2928 2927 2927 2923 2917 2917 2911
3083 3078 3072 3068 3063 3058 3053 3048 3041 3036 3028 3022 3019 3015 3009 3004 2998 2996 2995 2995 2991 2986 2985 2981 2978 2975 2972 2968 2963 2959 2956 2953 2951 2949 2948 2944 2939 2937 2931 2927 2924 2926 2926 2923 2921 2921 2916
3079 3074 3070 3065 3061 3056 3051 3046 3040 3034 3028 3022 3016 3013 3008 3003 2999 2997 2993 2992 2987 2985 2981 2979 2973 2971 2967 2961 2958 2955 2952 2947 2945 2943 2943 2941 2937 2937 2935 2931 2929 2924 2923 2922 2920 2916 2920
3075 3071 3067 3063 3058 3055 3049 3044 3039 3032 3026 3020 3015 3011 3008 3005 3002 2996 2992 2989 2984 2980 2977 2975 2969 2968 2965 2959 2953 2949 2947 2941 2939 2936 2935 2936 2932 2930 2926 2924 2923 2924 2920 2919 2920 2922 2925
3072 3069 3065 3061 3057 3051 3046 3042 3037 3030 3024 3019 3015 3011 3006 3003 2999 2995 2990 2986 2984 2980 2978 2972 2968 2962 2960 2957 2953 2945 2943 2937 2934 2929 2928 2928 2924 2924 2920 2919 2916 2916 2915 2915 2913 2919 2923
3070 3066 3062 3058 3053 3048 3044 3038 3032 3025 3020 3014 3010 3007 3001 2997 2993 2990 2986 2983 2980 2977 2971 2971 2965 2959 2955 2950 2946 2942 2938 2931 2928 2923 2921 2920 2918 2919 2912 2914 2912 2915 2918 2916 2917 2922 2921
3067 3063 3059 3055 3050 3046 3040 3034 3028 3022 3016 3012 3007 3003 2997 2991 2990 2987 2982 2979 2976 2974 2968 2965 2961 2955 2951 2944 2939 2935 2931 2925 2922 2921 2915 2914 2913 2914 2909 2908 2909 2922 2920 2917 2917 2918 2920
3064 3060 3055 3051 3047 3041 3035 3029 3024 3018 3013 3007 3002 2999 2994 2987 2984 2982 2977 2975 2971 2968 2964 2961 2957 2953 2945 2940 2933 2928 2924 2922 2920 2918 2915 2912 2910 2910 2908 2909 2919 2921 2920 2920 2919 2921 2921
3061 3056 3052 3048 3041 3036 3031 3025 3019 3014 3009 3004 3000 2994 2988 2983 2980 2977 2973 2971 2966 2960 2955 2954 2952 2947 2942 2937 2933 2929 2925 2922 2920 2919 2917 2914 2912 2911 2908 2909 2915 2921 2918 2918 2919 2920 2921
3057 3053 3048 3043 3037 3033 3027 3020 3014 3009 3004 2998 2995 2989 2984 2980 2976 2973 2970 2967 2963 2958 2953 2949 2945 2942 2939 2936 2932 2929 2925 2925 2921 2920 2915 2913 2911 2910 2909 2910 2916 2917 2917 2917 2920 2926 2918
3053 3049 3044 3039 3033 3027 3021 3015 3009 3004 2997 2993 2989 2983 2980 2975 2971 2967 2964 2962 2959 2955 2951 2949 2947 2942 2938 2936 2934 2931 2928 2927 2923 2921 2919 2918 2915 2912 2912 2912 2917 2916 2916 2917 2917 2914 2915
3049 3044 3039 3034 3028 3021 3015 3009 3002 2995 2990 2984 2981 2976 2974 2972 2968 2962 2959 2958 2954 2950 2948 2946 2945 2942 2940 2938 2935 2931 2928 2926 2923 2922 2921 2921 2921 2920 2920 2918 2917 2915 2915 2915 2914 2913 2912